EW1792 Weather Reports


Display with metric or nautical units.
time (UTC)temp
F
wind
direction
speed
MPH
gust
MPH
rain 1hr
in
rain 24hr
in
rain mn
in
humidity
%
barometer
mb
20260507070023 43 347 0.0 0.0 0.00 0.21 0.00 89 1014.6
20260507065519 43 347 0.0 0.0 0.00 0.32 0.00 88 1014.7
20260507065019 43 347 0.0 0.0 0.00 0.32 0.00 88 1014.9
20260507064518 44 347 0.0 0.0 0.00 0.32 0.00 88 1014.8
20260507064018 44 347 0.0 0.0 0.00 0.32 0.00 88 1014.9
20260507063518 44 347 0.0 0.0 0.00 0.32 0.00 88 1014.9
20260507063017 44 347 0.0 0.0 0.00 0.32 0.00 88 1014.9
20260507062516 44 347 0.0 0.0 0.00 0.32 0.00 88 1014.7
20260507062015 44 347 0.0 0.0 0.00 0.32 0.00 87 1014.8
20260507061515 45 347 0.0 0.0 0.00 0.32 0.00 87 1014.8
20260507061014 45 347 0.0 0.0 0.00 0.32 0.00 87 1014.7
20260507060513 45 347 0.0 0.0 0.00 0.32 0.00 87 1014.8
20260507060012 45 347 0.0 0.0 0.00 0.48 0.00 87 1014.8
20260507055511 45 347 0.0 0.0 0.00 0.48 0.00 87 1014.8
20260507055010 45 347 0.0 0.0 0.00 0.48 0.00 87 1014.9
20260507054511 45 347 0.0 0.0 0.00 0.48 0.00 86 1014.8
20260507054010 45 347 0.0 0.0 0.00 0.48 0.00 86 1014.9
20260507053511 46 347 0.0 0.0 0.00 0.48 0.00 85 1015.0
20260507053009 46 347 0.0 0.0 0.00 0.48 0.00 85 1015.0
20260507052508 46 347 0.0 0.0 0.00 0.48 0.00 86 1015.0
20260507052010 46 347 0.0 0.0 0.00 0.48 0.00 86 1015.1
20260507051508 46 347 0.0 0.0 0.00 0.48 0.00 86 1015.0
20260507051013 46 347 0.0 0.0 0.00 0.48 0.00 86 1014.8
20260507050506 46 347 0.0 0.0 0.00 0.48 0.00 85 1014.9
20260507050020 46 347 0.0 0.0 0.00 0.51 0.00 85 1014.9
20260507045506 47 347 0.0 0.0 0.00 0.51 0.00 84 1014.9
20260507045003 47 347 0.0 0.0 0.00 0.51 0.00 83 1015.1
20260507044502 47 347 0.0 0.0 0.00 0.51 0.00 82 1015.1
20260507044001 47 347 0.0 0.0 0.00 0.51 0.00 81 1015.2
20260507043501 48 347 0.0 0.0 0.00 0.51 0.00 81 1015.3
20260507043101 48 347 0.0 0.0 0.00 0.51 0.00 81 1015.3
20260507042600 48 347 0.0 0.0 0.00 0.51 0.00 81 1015.4
20260507042058 48 347 0.0 0.0 0.00 0.51 0.00 80 1015.4
20260507041557 48 347 0.0 0.0 0.00 0.51 0.00 80 1015.2
20260507041057 49 347 0.0 0.0 0.00 0.51 0.00 80 1015.3
20260507040556 49 347 0.0 0.0 0.00 0.51 0.00 79 1015.2
20260507040058 49 347 0.0 0.0 0.00 0.51 0.00 79 1015.2
20260507035556 49 347 0.0 0.0 0.00 0.51 0.51 79 1015.2
20260507035053 49 347 0.0 0.0 0.00 0.51 0.51 78 1015.1
20260507034556 50 347 0.0 0.0 0.00 0.51 0.51 77 1015.0
20260507034052 50 347 0.0 0.0 0.00 0.51 0.51 76 1015.0
20260507033552 50 347 0.0 0.0 0.00 0.51 0.51 76 1014.9
20260507033052 50 347 0.0 0.0 0.00 0.51 0.51 75 1014.9
20260507032552 50 347 0.0 0.0 0.00 0.51 0.51 75 1014.9
20260507032052 51 347 0.0 0.0 0.00 0.51 0.51 75 1014.9
20260507031554 51 347 0.0 0.0 0.00 0.51 0.51 75 1014.9
20260507031051 51 347 0.0 0.0 0.00 0.51 0.51 75 1014.9
20260507030551 51 347 0.0 0.0 0.00 0.51 0.51 75 1014.8
20260507030051 51 347 0.0 0.0 0.00 0.51 0.51 74 1014.9
20260507025554 51 347 0.0 0.0 0.00 0.51 0.51 74 1014.9
20260507025050 51 347 0.0 0.0 0.00 0.51 0.51 73 1014.9
20260507024550 52 347 0.0 0.0 0.00 0.51 0.51 73 1015.1
20260507024058 52 347 0.0 0.0 0.00 0.51 0.51 73 1014.9
20260507023553 52 347 0.0 0.0 0.00 0.51 0.51 73 1015.0
20260507023048 52 347 0.0 0.0 0.00 0.51 0.51 73 1014.8
20260507022548 52 347 0.0 0.0 0.00 0.51 0.51 72 1014.8
20260507022048 53 347 0.0 0.0 0.00 0.51 0.51 72 1014.8
20260507021557 53 347 0.0 0.0 0.00 0.51 0.51 72 1014.8
20260507021047 53 347 0.0 2.0 0.00 0.51 0.51 71 1014.6
20260507020547 53 347 0.0 2.0 0.00 0.51 0.51 71 1014.7
20260507020047 53 347 1.0 2.0 0.00 0.51 0.51 72 1014.6
20260507015546 53 347 1.0 2.0 0.00 0.54 0.51 71 1014.6
20260507015046 53 347 0.0 2.0 0.00 0.54 0.51 70 1014.7
20260507014546 54 347 0.0 2.0 0.00 0.54 0.51 70 1014.8
20260507014046 54 347 1.0 3.0 0.00 0.54 0.51 69 1014.7
20260507013545 54 347 1.0 4.0 0.00 0.54 0.51 68 1014.5
20260507013045 54 347 1.0 4.0 0.00 0.54 0.51 68 1014.5
20260507012645 54 347 2.0 4.0 0.00 0.54 0.51 67 1014.4
20260507012044 54 347 2.0 5.0 0.00 0.54 0.51 67 1014.4
20260507011548 54 348 2.0 4.0 0.00 0.54 0.51 66 1014.1
20260507011043 54 348 2.0 4.0 0.00 0.54 0.51 66 1014.1
20260507010543 55 349 1.0 4.0 0.00 0.54 0.51 67 1014.0
20260507010045 55 348 2.0 5.0 0.00 0.54 0.51 66 1014.0
20260507005543 55 348 2.0 6.0 0.00 0.57 0.51 65 1014.1
20260507005042 55 347 3.0 5.0 0.00 0.57 0.51 65 1014.0
20260507004542 55 346 2.0 6.0 0.00 0.57 0.51 66 1014.0
20260507004043 55 346 2.0 6.0 0.00 0.57 0.51 66 1014.0
20260507003543 55 355 3.0 6.0 0.00 0.57 0.51 66 1013.9
20260507003041 55 342 2.0 5.0 0.00 0.57 0.51 66 1013.8
20260507002541 55 339 3.0 5.0 0.00 0.57 0.51 66 1013.9
20260507002040 56 336 1.0 3.0 0.00 0.57 0.51 67 1013.7
20260507001541 56 336 1.0 4.0 0.00 0.57 0.51 66 1013.7
20260507001039 56 336 1.0 4.0 0.00 0.57 0.51 66 1013.7
20260507000539 56 336 1.0 4.0 0.00 0.57 0.51 65 1013.5
20260507000038 56 336 2.0 4.0 0.00 0.57 0.51 65 1013.5
20260506235539 56 335 2.0 4.0 0.00 0.60 0.51 65 1013.5
20260506235037 56 335 1.0 4.0 0.00 0.60 0.51 64 1013.3
20260506234548 56 334 2.0 5.0 0.00 0.60 0.51 64 1013.4
20260506234036 56 333 3.0 6.0 0.00 0.60 0.51 64 1013.3
20260506233536 57 351 3.0 5.0 0.00 0.60 0.51 64 1013.2
20260506233036 57 5 1.0 4.0 0.00 0.60 0.51 65 1013.2
20260506232535 57 5 2.0 9.0 0.00 0.60 0.51 64 1013.0
20260506232035 57 5 5.0 9.0 0.00 0.60 0.51 63 1013.0
20260506231535 57 355 2.0 10.0 0.00 0.60 0.51 64 1012.7
20260506231035 57 355 3.0 10.0 0.00 0.60 0.51 63 1012.7
20260506230534 58 342 3.0 10.0 0.00 0.60 0.51 63 1012.7
20260506230034 58 336 3.0 10.0 0.00 0.60 0.51 63 1012.7
20260506225533 58 355 5.0 10.0 0.00 0.61 0.51 62 1012.7
20260506225035 58 329 3.0 8.0 0.00 0.61 0.51 62 1012.8
20260506224534 58 344 2.0 8.0 0.00 0.61 0.51 62 1012.7
20260506224033 58 355 4.0 8.0 0.00 0.61 0.51 60 1012.7
20260506223533 58 349 3.0 5.0 0.00 0.61 0.51 61 1012.8
20260506223033 58 348 2.0 6.0 0.00 0.61 0.51 60 1012.7
20260506222533 58 355 4.0 6.0 0.00 0.61 0.51 58 1012.6
20260506222036 58 320 3.0 8.0 0.00 0.61 0.51 58 1012.8
20260506221533 59 333 4.0 9.0 0.00 0.61 0.51 59 1013.0
20260506221134 59 350 3.0 9.0 0.00 0.61 0.51 61 1013.0
20260506220533 59 303 4.0 9.0 0.00 0.61 0.51 61 1013.0
20260506220036 59 5 4.0 9.0 0.00 0.61 0.51 59 1012.9
20260506215530 59 296 3.0 8.0 0.00 0.67 0.51 62 1013.1
20260506215030 59 316 2.0 10.0 0.00 0.67 0.51 62 1013.2
20260506214532 59 320 4.0 10.0 0.00 0.67 0.51 60 1013.2
20260506214029 59 317 4.0 8.0 0.00 0.67 0.51 63 1013.0
20260506213528 59 329 2.0 9.0 0.00 0.67 0.51 61 1012.9
20260506213031 60 326 4.0 9.0 0.00 0.67 0.51 61 1012.9
20260506212532 60 327 3.0 6.0 0.00 0.67 0.51 62 1012.7
20260506212032 60 329 4.0 6.0 0.00 0.67 0.51 61 1012.9
20260506211529 60 319 2.0 8.0 0.00 0.67 0.51 61 1012.9
20260506211028 60 319 3.0 8.0 0.00 0.67 0.51 60 1012.6
20260506210527 60 328 2.0 6.0 0.00 0.67 0.51 61 1012.7
20260506210034 60 355 4.0 9.0 0.00 0.67 0.51 60 1012.6
20260506205527 60 321 3.0 9.0 0.00 0.67 0.51 59 1012.6
20260506205027 60 306 4.0 9.0 0.00 0.67 0.51 58 1012.7
20260506204544 60 340 4.0 9.0 0.00 0.67 0.51 58 1012.6
20260506204026 61 346 4.0 9.0 0.00 0.67 0.51 58 1012.7
20260506203526 61 275 2.0 8.0 0.00 0.67 0.51 59 1012.7
20260506203030 61 319 1.0 6.0 0.00 0.67 0.51 59 1012.8
20260506202526 61 307 2.0 9.0 0.00 0.67 0.51 60 1012.8
20260506202029 61 321 3.0 9.0 0.00 0.67 0.51 58 1012.8
20260506201532 61 17 3.0 10.0 0.00 0.67 0.51 57 1012.7
20260506201025 61 44 3.0 11.0 0.00 0.67 0.51 58 1012.7
20260506200524 61 47 4.0 13.0 0.00 0.67 0.51 59 1012.8
20260506200024 61 355 7.0 13.0 0.00 0.67 0.51 57 1012.6
20260506195524 61 45 4.0 9.0 0.00 0.67 0.51 59 1012.6
20260506195024 61 38 5.0 9.0 0.00 0.67 0.51 62 1012.8
20260506194524 61 60 6.0 9.0 0.00 0.67 0.51 61 1012.7
20260506194024 61 49 4.0 10.0 0.00 0.67 0.51 59 1012.8
20260506193524 61 56 5.0 12.0 0.00 0.67 0.51 61 1012.8
20260506193023 61 61 6.0 12.0 0.00 0.67 0.51 60 1012.9
20260506192523 61 9 2.0 11.0 0.00 0.67 0.51 59 1012.7
20260506192023 61 346 5.0 11.0 0.00 0.67 0.51 62 1012.7
20260506191523 61 51 4.0 10.0 0.00 0.67 0.51 58 1012.8
20260506191022 61 17 5.0 10.0 0.00 0.67 0.51 61 1012.7
20260506190520 61 302 4.0 14.0 0.00 0.67 0.51 66 1012.6
20260506190020 61 325 7.0 14.0 0.00 0.67 0.51 63 1012.5
20260506185520 61 315 4.0 10.0 0.00 0.67 0.51 62 1012.6
20260506185019 61 332 6.0 11.0 0.00 0.67 0.51 62 1012.6
20260506184519 61 42 5.0 11.0 0.00 0.67 0.51 62 1012.5
20260506184021 61 346 4.0 9.0 0.00 0.67 0.51 65 1012.4
20260506183518 60 355 5.0 10.0 0.00 0.67 0.51 64 1012.5
20260506183017 60 344 3.0 12.0 0.00 0.67 0.51 67 1012.3
20260506182516 60 20 5.0 12.0 0.00 0.67 0.51 65 1012.3
20260506182015 60 59 4.0 11.0 0.00 0.67 0.51 67 1012.3
20260506181520 59 287 1.0 9.0 0.00 0.67 0.51 67 1012.3
20260506181017 59 10 4.0 11.0 0.00 0.67 0.51 68 1012.4
20260506180519 60 65 7.0 11.0 0.00 0.67 0.51 68 1012.3
20260506180015 60 319 4.0 9.0 0.00 0.67 0.51 69 1012.5
20260506175513 60 349 5.0 9.0 0.00 0.67 0.51 67 1012.4
20260506175011 60 38 3.0 11.0 0.00 0.67 0.51 71 1012.5
20260506174510 59 346 6.0 11.0 0.00 0.67 0.51 71 1012.6
20260506174013 58 316 4.0 11.0 0.00 0.67 0.51 74 1012.7
20260506173510 58 323 4.0 11.0 0.00 0.67 0.51 73 1012.7
20260506173009 57 347 4.0 9.0 0.00 0.67 0.51 73 1012.7
20260506172509 57 322 4.0 9.0 0.00 0.67 0.51 72 1012.8
20260506172009 57 335 4.0 9.0 0.00 0.67 0.51 73 1012.8
20260506171518 57 355 3.0 9.0 0.00 0.67 0.51 73 1012.9
20260506171009 57 31 5.0 9.0 0.00 0.67 0.51 74 1013.0
20260506170506 57 15 5.0 10.0 0.00 0.67 0.51 75 1012.9
20260506170008 57 351 5.0 10.0 0.00 0.67 0.51 77 1013.0
20260506165505 57 328 2.0 9.0 0.00 0.67 0.51 79 1013.0
20260506165005 56 32 4.0 9.0 0.00 0.67 0.51 76 1012.9
20260506164505 56 44 1.0 9.0 0.00 0.67 0.51 78 1012.9
20260506164003 55 329 3.0 9.0 0.00 0.67 0.51 79 1012.9
20260506163502 55 55 2.0 10.0 0.00 0.67 0.51 78 1012.9
20260506163002 55 294 5.0 10.0 0.00 0.67 0.51 79 1012.8
20260506162502 55 342 3.0 6.0 0.00 0.67 0.51 82 1012.5
20260506162003 55 74 2.0 6.0 0.00 0.67 0.51 82 1012.5
20260506161606 54 331 2.0 8.0 0.00 0.67 0.51 82 1012.8
20260506161100 54 329 3.0 9.0 0.00 0.67 0.51 82 1012.9
20260506160559 54 317 2.0 9.0 0.00 0.67 0.51 82 1012.8
20260506160200 54 309 4.0 8.0 0.00 0.67 0.51 83 1012.8
20260506155558 54 313 3.0 11.0 0.00 0.67 0.51 82 1012.7
20260506155056 54 309 3.0 9.0 0.00 0.67 0.51 83 1012.7
20260506154557 54 360 4.0 8.0 0.00 0.67 0.51 85 1012.7
20260506154055 53 320 1.0 6.0 0.00 0.67 0.51 86 1012.6
20260506153555 53 322 2.0 5.0 0.00 0.67 0.51 86 1012.6
20260506153054 53 325 3.0 5.0 0.00 0.67 0.51 87 1012.6
20260506152553 53 322 2.0 10.0 0.00 0.67 0.51 87 1012.7
20260506152053 52 311 3.0 10.0 0.00 0.67 0.51 87 1012.5
20260506151604 52 13 5.0 10.0 0.00 0.67 0.51 87 1012.4
20260506151051 52 307 4.0 10.0 0.00 0.67 0.51 88 1012.2
20260506150550 52 26 5.0 10.0 0.00 0.67 0.51 88 1012.4
20260506150050 52 15 6.0 10.0 0.00 0.67 0.51 90 1012.3
20260506145550 52 342 3.0 8.0 0.00 0.67 0.51 91 1012.3
20260506145048 52 321 3.0 6.0 0.00 0.67 0.51 92 1012.2
20260506144548 51 355 2.0 6.0 0.00 0.67 0.51 93 1012.1
20260506144047 51 334 2.0 8.0 0.00 0.67 0.51 93 1012.1
20260506143546 50 355 3.0 8.0 0.00 0.67 0.51 94 1012.2
20260506143052 50 28 3.0 6.0 0.00 0.67 0.51 95 1012.0
20260506142544 50 331 3.0 6.0 0.00 0.67 0.51 96 1011.9
20260506142044 49 49 2.0 5.0 0.00 0.67 0.51 96 1011.8
20260506141543 49 360 1.0 6.0 0.00 0.67 0.51 96 1011.7
20260506141042 48 355 3.0 8.0 0.00 0.67 0.51 96 1011.7
20260506140544 48 5 2.0 8.0 0.00 0.67 0.51 96 1011.4
20260506140041 48 311 3.0 8.0 0.00 0.67 0.51 96 1011.5
20260506135540 48 355 3.0 8.0 0.00 0.67 0.51 96 1011.3
20260506135042 48 17 2.0 8.0 0.00 0.67 0.51 96 1011.1
20260506134540 48 19 4.0 8.0 0.00 0.67 0.51 97 1011.1
20260506134040 48 350 3.0 5.0 0.00 0.67 0.51 97 1011.4
20260506133539 48 348 1.0 5.0 0.00 0.67 0.51 97 1011.4
20260506133040 47 11 2.0 5.0 0.00 0.67 0.51 97 1011.2
20260506132536 47 9 2.0 5.0 0.00 0.67 0.51 97 1011.3
20260506132040 47 5 1.0 9.0 0.00 0.67 0.51 97 1011.5
20260506131536 47 20 2.0 9.0 0.00 0.67 0.51 97 1011.3
20260506131037 47 355 2.0 8.0 0.00 0.67 0.51 97 1011.3
20260506130534 47 22 3.0 8.0 0.00 0.67 0.51 97 1011.2
20260506130033 47 341 3.0 8.0 0.00 0.67 0.51 97 1011.4
20260506125532 47 335 4.0 8.0 0.00 0.67 0.51 97 1011.3
20260506125031 47 311 3.0 8.0 0.00 0.67 0.51 97 1011.0
20260506124530 47 325 3.0 9.0 0.00 0.67 0.51 97 1010.9
20260506124030 47 344 3.0 9.0 0.00 0.67 0.51 97 1010.7
20260506123529 47 24 3.0 9.0 0.00 0.67 0.51 97 1010.8
20260506123029 47 314 3.0 6.0 0.00 0.67 0.51 97 1010.8
20260506122528 46 340 3.0 6.0 0.00 0.67 0.51 97 1010.7
20260506122027 46 328 3.0 9.0 0.00 0.67 0.51 97 1010.7
20260506121527 46 323 3.0 10.0 0.00 0.67 0.51 97 1010.3
20260506121026 46 343 3.0 10.0 0.00 0.67 0.51 97 1010.4
20260506120525 47 336 2.0 8.0 0.00 0.67 0.51 97 1010.4
20260506120025 47 355 4.0 8.0 0.00 0.67 0.51 97 1010.3
20260506115525 47 9 3.0 6.0 0.00 0.67 0.51 97 1010.3
20260506115022 46 313 2.0 10.0 0.00 0.67 0.51 96 1010.2
20260506114530 46 306 3.0 10.0 0.00 0.67 0.51 97 1009.9
20260506114021 46 310 3.0 8.0 0.00 0.67 0.51 96 1009.7
20260506113519 46 360 3.0 9.0 0.00 0.67 0.51 96 1009.8
20260506113019 46 344 2.0 9.0 0.00 0.67 0.51 96 1009.6
20260506112516 46 360 3.0 6.0 0.00 0.67 0.51 96 1009.4
20260506112016 46 5 2.0 8.0 0.00 0.67 0.51 96 1009.1
20260506111515 46 338 4.0 8.0 0.00 0.67 0.51 96 1009.2
20260506111015 46 355 2.0 6.0 0.00 0.67 0.51 96 1009.0
20260506110520 46 329 3.0 8.0 0.00 0.67 0.51 96 1009.1
20260506110013 46 349 3.0 8.0 0.00 0.67 0.51 96 1008.8
20260506105512 46 35 2.0 9.0 0.00 0.67 0.51 96 1008.6
20260506105013 46 355 3.0 10.0 0.00 0.67 0.51 96 1008.4
20260506104510 46 337 3.0 10.0 0.00 0.67 0.51 96 1008.4
20260506104010 46 350 5.0 11.0 0.00 0.67 0.51 96 1008.4
20260506103508 46 5 5.0 9.0 0.00 0.67 0.51 96 1008.2
20260506103014 46 345 5.0 9.0 0.00 0.67 0.51 96 1008.1
20260506102507 46 340 3.0 8.0 0.00 0.67 0.51 96 1008.1
20260506102007 46 346 4.0 9.0 0.00 0.67 0.51 96 1007.9
20260506101509 46 40 2.0 10.0 0.00 0.67 0.51 96 1007.6
20260506101010 46 338 4.0 10.0 0.00 0.67 0.51 96 1007.7
20260506100508 46 336 3.0 10.0 0.00 0.67 0.51 96 1007.7
20260506100005 46 344 3.0 9.0 0.00 0.67 0.51 96 1007.7
20260506095505 46 5 3.0 11.0 0.00 0.67 0.51 96 1007.8
20260506095005 47 338 6.0 16.0 0.01 0.67 0.51 96 1008.0
20260506094513 47 344 8.0 16.0 0.01 0.67 0.51 96 1007.7
20260506094004 47 326 5.0 13.0 0.01 0.67 0.51 96 1008.1
20260506093501 47 350 8.0 14.0 0.02 0.67 0.51 96 1007.9
20260506093105 48 337 8.0 14.0 0.02 0.67 0.51 96 1007.9
20260506092559 48 15 4.0 10.0 0.02 0.67 0.51 96 1007.8
20260506092058 48 18 3.0 12.0 0.03 0.67 0.51 96 1007.5
20260506091558 48 336 4.0 15.0 0.03 0.67 0.51 96 1007.4
20260506091056 49 32 7.0 16.0 0.04 0.67 0.51 96 1007.3
20260506090602 49 55 7.0 17.0 0.05 0.67 0.51 95 1007.1
20260506090053 50 43 7.0 17.0 0.05 0.67 0.51 96 1007.0
20260506085552 51 328 5.0 9.0 0.07 0.67 0.51 96 1007.0
20260506085053 51 22 3.0 9.0 0.07 0.66 0.50 96 1006.8
20260506084552 51 333 4.0 15.0 0.08 0.66 0.50 96 1006.8
20260506084049 51 336 7.0 15.0 0.08 0.66 0.50 96 1006.6
20260506083547 52 319 6.0 13.0 0.08 0.65 0.49 96 1006.7
20260506083046 52 355 8.0 13.0 0.09 0.65 0.49 96 1006.5
20260506082545 53 338 5.0 18.0 0.10 0.65 0.49 96 1006.4
20260506082047 54 322 8.0 19.0 0.12 0.64 0.48 95 1006.3
20260506081541 56 344 9.0 19.0 0.16 0.64 0.48 96 1006.2
20260506081039 57 252 2.0 5.0 0.16 0.63 0.47 97 1006.1
20260506080539 57 252 2.0 4.0 0.15 0.62 0.46 97 1006.0
20260506073043 57 251 1.0 3.0 0.17 0.56 0.40 97 1005.8
20260506072535 57 250 1.0 3.0 0.16 0.55 0.39 96 1005.6
20260506072036 57 250 0.0 2.0 0.14 0.52 0.36 96 1005.6
20260506071545 57 250 0.0 0.0 0.11 0.48 0.32 96 1005.8
20260506071035 57 250 0.0 2.0 0.10 0.47 0.31 96 1005.5
20260506070535 57 250 0.0 3.0 0.11 0.47 0.31 96 1005.6